Location: Beetenbrück
(52.8113°N, 9.5946°E)
Time: 21:10:28
(UTC+00:00)

USA 59 Rocket - Pass Details

Date: 14 April 2026
Orbit: 367 x 1664 km, 63.3° (Epoch: 12 May)

Event Time Altitude Azimuth Distance (km) Brightness Sun altitude
Rises 22:07:54 0° 296° (WNW) 2,425 3.8 -25.6°
Reaches altitude 10° 22:10:51 10° 264° (W) 1,713 2.5 -25.7°
Enters shadow 22:10:53 10° 264° (W) 1,710 2.5 -25.7°
